CW4221 Weather Reports


time (UTC)temp
C
wind
direction
speed
KPH
gust
KPH
rain 1hr
cm
rain 24hr
cm
rain mn
cm
humidity
%
barometer
mb
20260510143837 18 15 0.0 3.2 0.00 0.00 0.00 67 1018.7
20260510143312 17 19 0.0 3.2 0.00 0.00 0.00 68 1018.6
20260510142809 17 26 0.0 1.6 0.00 0.00 0.00 67 1018.5
20260510142326 17 24 0.0 0.0 0.00 0.00 0.00 70 1018.4
20260510141823 17 34 0.0 6.4 0.00 0.00 0.00 69 1018.2
20260510141319 17 46 0.0 6.4 0.00 0.00 0.00 71 1018.2
20260510140815 17 17 0.0 1.6 0.00 0.00 0.00 72 1018.2
20260510140315 17 20 0.0 4.8 0.00 0.00 0.00 70 1018.1
20260510135831 17 12 0.0 4.8 0.00 0.00 0.00 71 1018.1
20260510135327 17 13 0.0 1.6 0.00 0.00 0.00 73 1018.0
20260510134823 17 22 0.0 3.2 0.00 0.00 0.00 74 1017.9
20260510134340 17 9 0.0 4.8 0.00 0.00 0.00 75 1017.7
20260510133815 17 10 0.0 14.5 0.00 0.00 0.00 74 1017.8
20260510133312 17 17 0.0 14.5 0.00 0.00 0.00 75 1017.6
20260510132828 17 44 0.0 6.4 0.00 0.00 0.00 75 1017.5
20260510132328 17 5 0.0 6.4 0.00 0.00 0.00 76 1017.5
20260510131824 17 11 0.0 0.0 0.00 0.00 0.00 76 1017.4
20260510131321 16 19 0.0 1.6 0.00 0.00 0.00 76 1017.3
20260510130817 16 15 0.0 1.6 0.00 0.00 0.00 77 1017.1
20260510130313 16 10 0.0 1.6 0.00 0.00 0.00 79 1017.0
20260510125829 16 15 0.0 1.6 0.00 0.00 0.00 80 1017.0
20260510125326 16 355 0.0 0.0 0.00 0.00 0.00 82 1016.9
20260510124826 15 15 0.0 4.8 0.00 0.00 0.00 82 1016.9
20260510124321 15 17 0.0 4.8 0.00 0.00 0.00 82 1017.0
20260510123817 15 20 0.0 3.2 0.00 0.00 0.00 83 1016.8
20260510123314 15 18 0.0 3.2 0.00 0.00 0.00 83 1016.7
20260510122811 15 22 0.0 1.6 0.00 0.00 0.00 83 1016.5
20260510122326 15 24 0.0 12.9 0.00 0.00 0.00 83 1016.4
20260510121823 15 18 0.0 12.9 0.00 0.00 0.00 83 1016.3
20260510121324 15 19 0.0 0.0 0.00 0.00 0.00 83 1016.2
20260510120820 14 22 0.0 1.6 0.00 0.00 0.00 84 1016.3
20260510120316 14 17 0.0 1.6 0.00 0.00 0.00 84 1016.2
20260510115812 14 23 0.0 0.0 0.00 0.00 0.00 85 1016.3
20260510115328 14 13 0.0 0.0 0.00 0.00 0.00 85 1016.2
20260510114845 14 24 0.0 0.0 0.00 0.00 0.00 85 1016.2
20260510114320 14 22 0.0 0.0 0.00 0.00 0.00 85 1016.0
20260510113816 14 25 0.0 0.0 0.00 0.00 0.00 85 1015.9
20260510113336 14 22 0.0 0.0 0.00 0.00 0.00 85 1015.9
20260510112811 14 26 0.0 0.0 0.00 0.00 0.00 85 1015.8
20260510112347 14 26 0.0 0.0 0.00 0.00 0.00 84 1015.5
20260510111822 14 26 0.0 0.0 0.00 0.00 0.00 84 1015.3
20260510111320 14 26 0.0 0.0 0.00 0.00 0.00 84 1015.2
20260510110817 14 26 0.0 0.0 0.00 0.00 0.00 84 1015.2
20260510110333 14 23 0.0 0.0 0.00 0.00 0.00 84 1015.2
20260510105828 14 26 0.0 0.0 0.00 0.00 0.00 84 1015.1
20260510105323 14 26 0.0 0.0 0.00 0.00 0.00 84 1015.1
20260510104823 14 26 0.0 0.0 0.00 0.00 0.00 85 1015.2
20260510104318 13 26 0.0 0.0 0.00 0.00 0.00 86 1015.2
20260510103814 13 22 0.0 0.0 0.00 0.00 0.00 88 1015.4
20260510103310 13 344 0.0 0.0 0.00 0.00 0.00 89 1015.4
20260510102827 12 340 0.0 0.0 0.00 0.00 0.00 90 1015.3
20260510102344 12 340 0.0 0.0 0.00 0.00 0.00 90 1015.2
20260510101819 12 340 0.0 0.0 0.00 0.00 0.00 90 1015.1
20260510101315 12 340 0.0 0.0 0.00 0.00 0.00 90 1014.8
20260510100816 12 340 0.0 0.0 0.00 0.00 0.00 89 1014.7
20260510100332 12 340 0.0 0.0 0.00 0.00 0.00 89 1014.7
20260510095827 12 340 0.0 0.0 0.00 0.00 0.00 89 1014.5
20260510095323 12 340 0.0 0.0 0.00 0.00 0.00 89 1014.5
20260510094819 12 340 0.0 0.0 0.00 0.00 0.00 89 1014.4
20260510094316 12 340 0.0 0.0 0.00 0.00 0.00 89 1014.4
20260510093811 12 340 0.0 0.0 0.00 0.00 0.00 89 1014.4
20260510093312 12 340 0.0 0.0 0.00 0.00 0.00 89 1014.4
20260510092809 12 340 0.0 0.0 0.00 0.00 0.00 88 1014.3
20260510092326 12 340 0.0 0.0 0.00 0.00 0.00 88 1014.3
20260510091821 12 340 0.0 0.0 0.00 0.00 0.00 88 1014.2
20260510091318 12 340 0.0 0.0 0.00 0.00 0.00 88 1014.2
20260510090835 12 340 0.0 0.0 0.00 0.00 0.00 89 1014.2
20260510090309 12 340 0.0 0.0 0.00 0.00 0.00 89 1014.2
20260510085825 12 340 0.0 0.0 0.00 0.00 0.00 89 1014.1
20260510085321 12 340 0.0 0.0 0.00 0.00 0.00 89 1014.0
20260510084821 12 340 0.0 0.0 0.00 0.00 0.00 89 1014.0
20260510084317 12 340 0.0 0.0 0.00 0.00 0.00 89 1013.8
20260510083813 12 340 0.0 0.0 0.00 0.00 0.00 89 1013.7
20260510083309 12 340 0.0 0.0 0.00 0.00 0.00 89 1013.7
20260510082826 12 340 0.0 0.0 0.00 0.00 0.00 89 1013.6
20260510082321 12 340 0.0 0.0 0.00 0.00 0.00 88 1013.5
20260510081817 12 340 0.0 0.0 0.00 0.00 0.00 88 1013.7
20260510081317 12 340 0.0 0.0 0.00 0.00 0.00 88 1013.8
20260510080813 12 340 0.0 0.0 0.00 0.00 0.00 88 1013.9
20260510080309 12 340 0.0 0.0 0.00 0.00 0.00 88 1014.2
20260510075824 12 340 0.0 0.0 0.00 0.00 0.00 88 1014.1
20260510075321 12 340 0.0 0.0 0.00 0.00 0.00 88 1014.0
20260510074817 12 340 0.0 0.0 0.00 0.00 0.00 87 1013.8
20260510074314 12 340 0.0 0.0 0.00 0.00 0.00 87 1013.8
20260510073810 12 340 0.0 0.0 0.00 0.00 0.00 87 1013.8
20260510073310 12 340 0.0 0.0 0.00 0.00 0.00 88 1013.7
20260510072827 12 340 0.0 0.0 0.00 0.00 0.00 87 1013.7
20260510072324 12 340 0.0 0.0 0.00 0.00 0.00 87 1013.7
20260510071820 12 340 0.0 0.0 0.00 0.00 0.00 87 1013.7
20260510071336 12 340 0.0 0.0 0.00 0.00 0.00 87 1013.7
20260510070810 12 340 0.0 0.0 0.00 0.00 0.00 86 1013.7
20260510070327 12 340 0.0 0.0 0.00 0.00 0.00 85 1013.6
20260510065822 12 340 0.0 0.0 0.00 0.00 0.00 84 1013.6
20260510065323 13 340 0.0 0.0 0.00 0.00 0.00 83 1013.6
20260510064839 13 340 0.0 0.0 0.00 0.00 0.00 84 1013.5
20260510064314 13 340 0.0 0.0 0.00 0.00 0.00 83 1013.5
20260510063832 13 340 0.0 0.0 0.00 0.00 0.00 82 1013.5
20260510063327 13 340 0.0 0.0 0.00 0.00 0.00 81 1013.7
20260510062823 13 340 0.0 0.0 0.00 0.00 0.00 80 1013.7
20260510062319 14 340 0.0 0.0 0.00 0.00 0.00 80 1013.7
20260510061836 14 340 0.0 0.0 0.00 0.00 0.00 80 1013.7
20260510061315 14 340 0.0 0.0 0.00 0.00 0.00 79 1013.8
20260510060812 15 340 0.0 0.0 0.00 0.00 0.00 76 1013.8
20260510060309 16 340 0.0 0.0 0.00 0.00 0.00 75 1013.8
20260510055844 16 340 0.0 0.0 0.00 0.00 0.00 75 1013.9
20260510055319 15 340 0.0 0.0 0.00 0.00 0.00 77 1013.9
20260510054816 14 340 0.0 9.7 0.00 0.00 0.00 83 1013.9
20260510054312 13 344 0.0 9.7 0.00 0.00 0.00 89 1013.9
20260510053828 12 344 0.0 1.6 0.00 0.00 0.00 88 1013.8
20260510053345 12 187 0.0 0.0 0.00 0.00 0.00 88 1013.5
20260510052823 12 187 0.0 0.0 0.00 0.00 0.00 87 1013.4
20260510052340 12 187 0.0 0.0 0.00 0.00 0.00 87 1013.4
20260510051816 12 187 0.0 0.0 0.00 0.00 0.00 87 1013.4
20260510051312 12 187 0.0 0.0 0.00 0.00 0.00 86 1013.2
20260510050810 12 187 0.0 0.0 0.00 0.00 0.00 86 1013.2
20260510050346 13 187 0.0 0.0 0.00 0.00 0.00 85 1013.0
20260510045820 13 187 0.0 0.0 0.00 0.00 0.00 85 1013.0
20260510045317 13 187 0.0 0.0 0.00 0.00 0.00 83 1013.1
20260510044818 14 187 0.0 0.0 0.00 0.00 0.00 84 1013.0
20260510044314 14 187 0.0 0.0 0.00 0.00 0.00 83 1013.1
20260510043831 14 187 0.0 0.0 0.00 0.00 0.00 83 1013.1
20260510043326 14 187 0.0 0.0 0.00 0.00 0.00 83 1013.1
20260510042823 14 187 0.0 0.0 0.00 0.00 0.00 83 1013.1
20260510042318 14 187 0.0 0.0 0.00 0.00 0.00 83 1013.0
20260510041814 14 187 0.0 0.0 0.00 0.00 0.00 83 1012.9
20260510041310 14 187 0.0 0.0 0.00 0.00 0.00 82 1012.9
20260510040830 14 187 0.0 0.0 0.00 0.00 0.00 82 1012.8
20260510040326 14 187 0.0 0.0 0.00 0.00 0.00 82 1012.8
20260510035822 14 96 0.0 1.6 0.00 0.00 0.00 84 1012.6
20260510035319 13 95 0.0 1.6 0.00 0.00 0.00 84 1012.6
20260510034815 13 65 0.0 0.0 0.00 0.00 0.00 83 1012.5
20260510034311 13 65 0.0 0.0 0.00 0.00 0.00 83 1012.6
20260510033849 13 65 0.0 0.0 0.00 0.00 0.00 83 1012.6
20260510033325 13 65 0.0 0.0 0.00 0.00 0.00 82 1012.6
20260510032826 13 65 0.0 0.0 0.00 0.00 0.00 82 1012.6
20260510032342 13 65 0.0 0.0 0.00 0.00 0.00 82 1012.6
20260510031817 13 65 0.0 0.0 0.00 0.00 0.00 82 1012.5
20260510031312 14 65 0.0 0.0 0.00 0.00 0.00 81 1012.5
20260510030829 14 65 0.0 0.0 0.00 0.00 0.00 81 1012.5
20260510030345 15 65 0.0 0.0 0.00 0.00 0.00 81 1012.4
20260510025840 15 65 0.0 0.0 0.00 0.00 0.00 81 1012.3
20260510025315 15 65 0.0 0.0 0.00 0.00 0.00 80 1012.2
20260510024832 15 65 0.0 0.0 0.00 0.00 0.00 80 1012.1
20260510024327 15 65 0.0 0.0 0.00 0.00 0.00 81 1012.0
20260510023824 15 65 0.0 0.0 0.00 0.00 0.00 80 1011.8
20260510023324 15 65 0.0 0.0 0.00 0.00 0.00 79 1011.7
20260510022819 15 65 0.0 0.0 0.00 0.00 0.00 78 1011.6
20260510022315 15 65 0.0 0.0 0.00 0.00 0.00 76 1011.4
20260510021811 16 65 0.0 0.0 0.00 0.00 0.00 76 1011.5
20260510021348 16 65 0.0 0.0 0.00 0.00 0.00 74 1011.4
20260510020823 16 65 0.0 0.0 0.00 0.00 0.00 75 1011.3
20260510020319 16 65 0.0 0.0 0.00 0.00 0.00 75 1011.2
20260510015813 16 65 0.0 0.0 0.00 0.00 0.00 74 1011.0
20260510015309 17 65 0.0 0.0 0.00 0.00 0.00 70 1010.9
20260510014809 17 65 0.0 0.0 0.00 0.00 0.00 71 1010.8
20260510014325 17 65 0.0 0.0 0.00 0.00 0.00 70 1010.7
20260510013823 18 65 0.0 0.0 0.00 0.00 0.00 68 1010.7
20260510013319 18 65 0.0 0.0 0.00 0.00 0.00 68 1010.6
20260510012815 18 65 0.0 0.0 0.00 0.00 0.00 66 1010.6
20260510012332 19 65 0.0 0.0 0.00 0.00 0.00 65 1010.5
20260510011828 19 65 0.0 0.0 0.00 0.00 0.00 63 1010.5
20260510011345 20 65 0.0 0.0 0.00 0.00 0.00 61 1010.4
20260510010824 20 65 0.0 0.0 0.00 0.00 0.00 60 1010.4
20260510010320 20 51 0.0 0.0 0.00 0.00 0.00 60 1010.3
20260510005815 21 51 0.0 0.0 0.00 0.00 0.00 60 1010.2
20260510005312 22 51 0.0 0.0 0.00 0.00 0.00 52 1010.2
20260510004829 22 51 0.0 0.0 0.00 0.00 0.00 52 1010.1
20260510004325 22 51 0.0 0.0 0.00 0.00 0.00 52 1010.1
20260510003820 22 51 0.0 0.0 0.00 0.00 0.00 56 1010.1
20260510003320 23 51 0.0 0.0 0.00 0.00 0.00 54 1010.0
20260510002816 24 50 0.0 0.0 0.00 0.00 0.00 51 1010.0
20260510002312 25 57 0.0 0.0 0.00 0.00 0.00 45 1010.0
20260510001829 25 57 0.0 0.0 0.00 0.00 0.00 41 1010.0
20260510001344 25 57 0.0 0.0 0.00 0.00 0.00 46 1010.0
20260510000819 25 259 0.0 0.0 0.00 0.00 0.00 40 1010.0
20260510000315 25 260 0.0 0.0 0.00 0.00 0.00 39 1010.0
20260509235810 25 260 0.0 0.0 0.00 0.00 0.00 38 1010.0
20260509235346 26 260 0.0 0.0 0.00 0.00 0.00 37 1010.0
20260509234825 26 259 0.0 0.0 0.00 0.00 0.00 38 1010.0
20260509234321 26 213 0.0 0.0 0.00 0.00 0.00 38 1010.0
20260509233816 26 197 0.0 0.0 0.00 0.00 0.00 36 1010.0
20260509233312 26 240 0.0 0.0 0.00 0.00 0.00 38 1009.9
20260509232830 26 275 0.0 0.0 0.00 0.00 0.00 37 1010.0
20260509232326 26 253 0.0 1.6 0.00 0.00 0.00 37 1010.0
20260509231842 26 228 0.0 1.6 0.00 0.00 0.00 38 1010.0
20260509231317 27 214 0.0 0.0 0.00 0.00 0.00 35 1010.0
20260509230813 27 214 0.0 0.0 0.00 0.00 0.00 37 1010.0
20260509230314 27 230 0.0 0.0 0.00 0.00 0.00 31 1010.0
20260509225829 27 255 0.0 0.0 0.00 0.00 0.00 34 1010.0
20260509225326 27 254 0.0 0.0 0.00 0.00 0.00 39 1010.0
20260509224841 27 254 0.0 0.0 0.00 0.00 0.00 37 1010.0
20260509224338 27 300 0.0 0.0 0.00 0.00 0.00 34 1010.0
20260509223813 27 300 0.0 0.0 0.00 0.00 0.00 37 1010.0
20260509223329 27 263 0.0 0.0 0.00 0.00 0.00 34 1010.0
20260509222826 27 263 0.0 0.0 0.00 0.00 0.00 32 1010.1
20260509222327 27 267 0.0 0.0 0.00 0.00 0.00 34 1010.0
20260509221825 27 210 0.0 1.6 0.00 0.00 0.00 31 1010.1
20260509221342 27 252 0.0 12.9 0.00 0.00 0.00 34 1010.1
20260509220818 27 239 1.6 12.9 0.00 0.00 0.00 38 1010.1
20260509220314 27 261 0.0 0.0 0.00 0.00 0.00 38 1010.0
20260509215829 27 322 0.0 1.6 0.00 0.00 0.00 34 1010.0
20260509215325 27 208 0.0 1.6 0.00 0.00 0.00 37 1009.9
20260509214822 27 280 0.0 1.6 0.00 0.00 0.00 33 1010.0
20260509214321 27 286 0.0 0.0 0.00 0.00 0.00 37 1010.1
20260509213817 27 345 0.0 0.0 0.00 0.00 0.00 35 1010.1
20260509213315 27 258 0.0 1.6 0.00 0.00 0.00 37 1010.1
20260509212811 27 265 0.0 1.6 0.00 0.00 0.00 39 1010.0
20260509212326 27 339 0.0 0.0 0.00 0.00 0.00 37 1010.0
20260509211823 27 340 0.0 0.0 0.00 0.00 0.00 38 1010.0
20260509211318 27 338 0.0 0.0 0.00 0.00 0.00 39 1010.0
20260509210820 27 342 0.0 1.6 0.00 0.00 0.00 40 1010.1
20260509210316 27 250 0.0 1.6 0.00 0.00 0.00 38 1010.1
20260509205813 27 223 0.0 0.0 0.00 0.00 0.00 36 1010.2
20260509205310 27 239 0.0 0.0 0.00 0.00 0.00 35 1010.3
20260509204826 27 238 0.0 0.0 0.00 0.00 0.00 37 1010.4
20260509204322 27 248 0.0 0.0 0.00 0.00 0.00 34 1010.3
20260509203819 27 219 0.0 0.0 0.00 0.00 0.00 35 1010.3
20260509203319 27 116 0.0 0.0 0.00 0.00 0.00 38 1010.4
20260509202815 27 250 0.0 0.0 0.00 0.00 0.00 35 1010.4
20260509202312 27 341 0.0 0.0 0.00 0.00 0.00 35 1010.5
20260509201829 27 337 0.0 1.6 0.00 0.00 0.00 34 1010.7
20260509201326 27 350 0.0 6.4 0.00 0.00 0.00 41 1010.7
20260509200842 27 346 0.0 6.4 0.00 0.00 0.00 40 1010.8
20260509200318 27 246 0.0 0.0 0.00 0.00 0.00 38 1010.7
20260509195833 27 257 0.0 0.0 0.00 0.00 0.00 39 1010.8
20260509195312 27 331 0.0 0.0 0.00 0.00 0.00 42 1010.9
20260509194828 27 275 0.0 11.3 0.00 0.00 0.00 38 1010.9
20260509194324 27 254 0.0 11.3 0.00 0.00 0.00 37 1011.0
20260509193821 27 239 0.0 0.0 0.00 0.00 0.00 41 1010.9
20260509193317 27 240 0.0 0.0 0.00 0.00 0.00 38 1010.9
20260509192813 27 260 0.0 0.0 0.00 0.00 0.00 35 1011.0
20260509192309 27 267 0.0 0.0 0.00 0.00 0.00 39 1011.0
20260509191810 27 321 0.0 0.0 0.00 0.00 0.00 39 1010.9
20260509191326 27 208 0.0 0.0 0.00 0.00 0.00 35 1010.9
20260509190822 27 321 0.0 0.0 0.00 0.00 0.00 37 1011.0
20260509190318 27 229 0.0 0.0 0.00 0.00 0.00 40 1011.1
20260509185834 27 335 0.0 0.0 0.00 0.00 0.00 39 1011.1
20260509185309 27 273 0.0 1.6 0.00 0.00 0.00 41 1011.1
20260509184825 26 278 0.0 4.8 0.00 0.00 0.00 38 1011.1
20260509184321 26 212 0.0 4.8 0.00 0.00 0.00 37 1011.1
20260509183822 26 326 0.0 1.6 0.00 0.00 0.00 40 1011.1
20260509183319 26 206 0.0 14.5 0.00 0.00 0.00 41 1011.0
20260509182815 26 236 0.0 14.5 0.00 0.00 0.00 40 1011.0
20260509182331 26 5 0.0 0.0 0.00 0.00 0.00 39 1011.0
20260509181827 26 312 0.0 0.0 0.00 0.00 0.00 42 1010.9
20260509181323 26 238 0.0 4.8 0.00 0.00 0.00 41 1011.0
20260509180820 26 243 0.0 4.8 0.00 0.00 0.00 42 1011.1
20260509180316 26 256 0.0 4.8 0.00 0.00 0.00 45 1011.1
20260509175836 26 327 0.0 4.8 0.00 0.00 0.00 47 1011.1
20260509175311 26 332 0.0 6.4 0.00 0.00 0.00 44 1011.1
20260509174847 26 244 0.0 1.6 0.00 0.00 0.00 45 1011.2
20260509174323 26 251 0.0 1.6 0.00 0.00 0.00 49 1011.2
20260509173819 26 351 0.0 1.6 0.00 0.00 0.00 45 1011.1
20260509173316 26 325 0.0 0.0 0.00 0.00 0.00 45 1011.2
20260509172812 26 339 0.0 0.0 0.00 0.00 0.00 46 1011.4
20260509172328 26 342 0.0 4.8 0.00 0.00 0.00 46 1011.4
20260509171810 25 346 0.0 4.8 0.00 0.00 0.00 46 1011.4
20260509171327 25 324 0.0 1.6 0.00 0.00 0.00 45 1011.4
20260509170823 25 355 0.0 1.6 0.00 0.00 0.00 46 1011.6
20260509170317 25 257 0.0 1.6 0.00 0.00 0.00 47 1011.6
20260509165812 25 253 0.0 1.6 0.00 0.00 0.00 48 1011.6
20260509165328 25 331 0.0 0.0 0.00 0.00 0.00 53 1011.5
20260509164825 25 255 0.0 8.0 0.00 0.00 0.00 51 1011.4
20260509164342 25 245 0.0 8.0 0.00 0.00 0.00 48 1011.4
20260509163821 25 347 0.0 14.5 0.00 0.00 0.00 50 1011.3
20260509163317 25 330 0.0 14.5 0.00 0.00 0.00 49 1011.4
20260509162813 25 240 0.0 3.2 0.00 0.00 0.00 54 1011.5
20260509162330 25 258 0.0 3.2 0.00 0.00 0.00 52 1011.4
20260509161827 25 348 0.0 1.6 0.00 0.00 0.00 53 1011.4
20260509161323 25 240 0.0 1.6 0.00 0.00 0.00 53 1011.5
20260509160819 24 288 0.0 1.6 0.00 0.00 0.00 51 1011.6
20260509160314 24 259 0.0 0.0 0.00 0.00 0.00 52 1011.4
20260509155830 24 221 0.0 3.2 0.00 0.00 0.00 55 1011.4
20260509155310 23 210 0.0 1.6 0.00 0.00 0.00 60 1011.4